Regional Weather Roundup
Issued by NWS

Home | Current Version | Previous Version | Graphics & Text | Print | Product List | Glossary On
Versions: 1 2 3 4 5 6 7 8 9 10 11 12 13 14 15 16 17 18 19 20 21 22 23 24 25 26 27 28 29 30 31 32 33 34 35 36 37 38 39 40 41 42 43 44 45 46 47 48 49 50
000
ASUS45 KBOI 261510
RWRID

IDAHO REGIONAL WEATHER ROUNDUP
NATIONAL WEATHER SERVICE BOISE ID
900 AM MDT TUE MAY 26 2015

NOTE: "FAIR" INDICATES FEW OR NO CLOUDS BELOW 12000 FEET
WITH NO SIGNIFICANT WEATHER AND/OR OBSTRUCTIONS TO VISIBILITY

IDZ012-014-261600-
SOUTHWEST IDAHO


CITY           SKY/WX    TMP DP  RH WIND       PRES   REMARKS
BOISE          SUNNY     60  49  66 CALM      29.96S
CALDWELL       SUNNY     57  45  62 CALM      29.98R
$$

IDZ016-017-261600-
SOUTHCENTRAL IDAHO


CITY           SKY/WX    TMP DP  RH WIND       PRES   REMARKS
BURLEY         CLOUDY    56  49  77 SW5       29.99R
JEROME         PTSUNNY   56  45  66 SW5       30.00R
TWIN FALLS     CLOUDY    61  47  59 SW3       29.98R
$$

IDZ019>023-261600-
SOUTHEAST IDAHO


CITY           SKY/WX    TMP DP  RH WIND       PRES   REMARKS
IDAHO FALLS    PTSUNNY   56  48  74 SW9       30.02R
POCATELLO      PTSUNNY   56  51  84 CALM      30.02S
REXBURG        PTSUNNY   54  44  69 SW12      30.02R
$$

IDZ006-010-011-018-031-032-261600-
CENTRAL IDAHO MOUNTAINS


CITY           SKY/WX    TMP DP  RH WIND       PRES   REMARKS
MCCALL         SUNNY     48  44  86 CALM      30.00R
HAILEY         MOSUNNY   54  43  66 N5        30.04R
STANLEY          N/A     39  36  89 CALM      30.09R
SALMON         CLOUDY    52  46  82 N5        30.02R
CHALLIS        SUNNY     51  42  71 VRB3      30.03S
$$

IDZ002-004-006-007-026-261600-
NORTHERN IDAHO


CITY           SKY/WX    TMP DP  RH WIND       PRES   REMARKS
LEWISTON       CLOUDY    58  52  80 SE3       29.96R
LOWELL           N/A     55  49  80 CALM      30.00S
COEUR D`ALENE  PTSUNNY   54  48  82 W3        29.97R
MULLAN PASS    CLOUDY    39  39 100 CALM      30.02R
$$


USA.gov is the U.S. government's official web portal to all federal, state and local government web resources and services.